EHI
0 0 0 0 0 0 0 0 0 0 0 0 0 0 0 0 0 0 0 0 0 0 0 0 0 0 0 0 0 0 0 0 0 0 0 0 0 0 0 0 0 0 0
0 0 0 0 0 0 0 0 0 0 0 0 0 0 0 0 0 0 0 0 0 0 0 0 0 0 0 0 0 0 0 0 0 0 0 0 0 0 0 0 0 0 0
0 0 0 0 0 0 0 0 0 0 0 0 0 0 0 0 0 0 0 0 0 0 0 0 0 0 0 0 0 0 0 0 0 0 0 0 0 0 0 0 0 0 0
0 0 0 0 0 0 0 0 0 0 0 0 0 0 0 0 0 0 0 0 0 0 0 0 0 0 0 0 0 0 0 0 0 0 0 0 0 0 0 0 0 0 0
0 0 0 0 0 0 0 0 0 0 0 0 0 0 0 0 0 0 0 0 0 0 0 0 0 0 0 0 0 0 0 0 0 0 0 0 0 0 0 0 0 0 0
0 0 0 0 0 0 0 0 0 0 0 0 0 0 0 0 0 0 0 0 0 0 0 0 0 0 0 0 0 0 0 0 0 0 0 0 0 0 0 0 0 0 0
0 0 0 0 0 0 0 0 0 0 0 0 0 0 0 0 0 0 0 0 0 0 0 0 0 0 0 0 0 0 0 0 0 0 0 0 0 0 0 0 0 0 0
0 0 0 0 0 0 0 0 0 0 0 0 0 0 0 0 0 0 0 0 0 0 0 0 0 0 0 0 0 0 0 0 0 0 0 0 0 0 0 0 0 0 0
0 0 0 0 0 0 0 0 0 0 0 0 0 0 0 0 0 0 0 0 0 0 0 0 0 0 0 0 0 0 0 0 0 0 0 0 0 0 0 0 0 0 0
0 0 0 0 0 0 0 0 0 0 0 0 0 0 0 0 0 0 0 0 0 0 0 0 0 0 0 0 0 0 0 0 0 0 0 0 0 0 0 0 0 0 0
0 0 0 0 0 0 0 0 0 0 0 0 0 0 0 0 0 0 0 0 0 0 0 0 0 0 0 0 0 0 0 0 0 0 0 0 0 0 0 0 0 0 0
0 0 0 0 0 0 0 0 0 0 0 0 0 0 0 0 0 0 0 0 0 0 0 0 0 0 0 0 0 0 0 0 0 0 0 0 0 0 0 0 0 0 0
0 0 0 0 0 0 0 0 0 0 0 0 0 0 0 0 0 0 0 0 0 0 0 0 0 0 0 0 0 0 0 0 0 0 0 0 0 0 0 0 0 0 0
0 0 0 0 0 0 0 0 0 0 0 0 0 0 0 0 0 0 0 0 0 0 0 0 0 0 0 0 0 0 0 0 0 0 0 0 0 0 0 0 0 0 0
0 0 0 0 0 0 0 0 0 0 0 0 0 0 0 0 0 0 0 0 0 0 0 0 0 0 0 0 0 0 0 0 0 0 0 0 0 0 0 0 0 0 0
0 0 0 0 0 0 0 0 0 0 0 0 0 0 0 0 0 0 0 0 0 0 0 0 0 0 0 0 0 0 0 0 0 0 0 0 0 0 0 0 0 0 0
0 0 0 0 0 0 0 0 0 0 0 0 0 0 0 0 0 0 0 0 0 0 0 0 0 0 0 0 0 0 0 0 0 0 0 0 0 0 0 0 0 0 0
0 0 0 0 0 0 0 0 0 0 0 0 0 0 0 0 0 0 0 0 0 0 0 0 0 0 0 0 0 0 0 0 0 0 0 0 0 0 0 0 0 0 0
0 0 0 0 0 0 0 0 0 0 0 0 0 0 0 0 0 0 0 0 0 0 0 0 0 0 0 0 0 0 0 0 0 0 0 0 0 0 0 0 0 0 0
0 0 0 0 0 0 0 0 0 0 0 0 0 0 0 0 0 0 0 0 0 0 0 0 0 0 0 0 0 0 0 0 0 0 0 0 0 0 0 0 0 0 0
0 0 0 0 0 0 0 0 0 0 0 0 0 0 0 0 0 0 0 0 0 0 0 0 0 0 0 0 0 0 0 0 0 0 0 0 0 0 0 0 0 0 0
0 0 0 0 0 0 0 0 0 0 0 0 0 0 0 0 0 0 0 0 0 0 0 0 0 0 0 0 0 0 0 0 0 0 0 0 0 0 0 0 0 0 0
0 0 0 0 0 0 0 0 0 0 0 0 0 0 0 0 0 0 0 0 0 0 0 0 0 0 0 0 0 0 0 0 0 0 0 0 0 0 0 0 0 0 0
0 0 0 0 0 0 0 0 0 0 0 0 0 0 0 0 0 0 0 0 0 0 0 0 0 0 0 0 0 0 0 0 0 0 0 0 0 0 0 0 0 0 0
0 0 0 0 0 0 0 0 0 0 0 0 0 0 0 0 0 0 0 0 0 0 0 0 0 0 0 0 0 0 0 0 0 0 0 0 0 0 0 0 0 0 0
0 0 0 0 0 0 0 0 0 0 0 0 0 0 0 0 0 0 0 0 0 0 0 0 0 0 0 0 0 0 0 0 0 0 0 0 0 0 0 0 0 0 0
Wind_Speed
2 2 2 2 1 2 1 1 1 1 1 1 1 1 2 2 2 1 2 2 2 2 2 1 2 2 1 1 0 0 1 2 2 2 2 1 1 1 1 1 1 2 2
2 3 2 2 3 3 2 3 2 2 2 2 1 1 2 2 2 1 2 2 2 3 2 2 3 2 2 1 1 1 1 2 2 2 2 1 2 2 2 2 2 2 2
3 3 3 3 3 3 2 3 3 2 2 2 2 2 2 2 2 2 2 2 3 3 3 3 3 2 3 2 2 2 2 1 2 2 2 1 1 1 1 1 1 1 2
4 4 3 2 2 2 2 3 3 3 3 3 3 2 2 2 1 2 2 2 3 4 4 4 4 4 5 4 3 3 2 2 1 2 2 2 2 1 1 1 1 1 1
4 4 2 2 3 3 3 3 3 4 4 3 3 3 3 2 2 2 2 2 3 4 4 4 5 6 7 6 5 4 4 3 2 2 2 2 2 1 2 2 2 1 2
5 3 3 3 4 4 4 4 4 4 4 4 4 4 4 4 6 5 3 2 2 3 5 5 6 6 7 9 10 10 8 6 5 3 3 4 4 3 3 2 2 1 2
5 3 3 3 3 3 4 4 4 4 4 4 4 4 4 5 8 8 7 3 2 3 4 5 5 5 6 5 8 9 9 11 11 7 6 6 5 5 4 4 4 4 4
4 3 3 3 3 3 3 4 3 3 3 3 3 4 3 6 10 9 9 3 3 4 4 4 4 6 5 5 5 5 6 6 8 7 7 7 7 6 6 6 5 3 2
3 2 1 2 2 2 3 3 2 3 3 3 3 4 4 5 9 10 8 3 3 5 5 5 5 5 10 9 5 6 6 7 8 10 10 10 11 10 7 4 3 3 3
3 2 1 1 2 1 1 2 2 2 2 3 3 3 3 4 8 10 9 2 3 4 5 5 7 9 12 11 5 6 7 7 5 5 6 8 8 8 11 8 7 5 3
3 2 1 1 0 0 0 1 1 2 2 3 3 3 3 4 6 9 8 3 3 4 5 5 6 13 14 13 9 6 10 9 6 5 5 5 4 4 5 6 7 7 6
3 2 1 0 1 1 1 1 1 1 2 2 3 4 3 4 4 6 9 7 6 3 5 5 7 14 15 15 10 10 13 10 4 4 4 4 5 5 5 6 7 7 7
3 2 1 0 1 0 0 0 1 1 1 2 2 3 4 4 5 9 9 9 9 5 5 10 13 14 13 10 11 13 9 5 4 4 5 6 5 5 4 3 3 4 4
4 2 2 1 1 1 1 1 1 1 2 2 3 3 4 4 4 4 4 5 7 6 6 9 13 12 9 9 9 7 4 5 5 5 5 5 3 3 4 4 4 3 3
4 3 2 2 2 2 2 3 3 4 4 4 4 4 4 5 7 9 6 5 4 5 6 4 4 5 5 5 5 5 4 4 5 4 4 4 4 4 4 4 4 4 4
3 3 3 3 2 2 3 3 6 6 9 10 9 7 6 9 12 12 12 12 11 11 6 4 5 5 6 6 6 5 4 4 5 5 4 4 5 5 4 4 4 5 6
5 4 3 3 3 3 3 3 4 6 8 9 11 11 11 12 12 12 12 11 11 9 3 4 5 5 6 6 5 5 5 4 4 5 5 4 4 5 4 4 5 6 6
5 5 4 4 4 4 4 4 4 4 5 5 7 10 12 12 12 12 12 8 5 4 3 5 5 6 5 6 5 5 5 5 4 5 4 5 5 5 5 5 5 6 6
5 4 4 4 4 4 4 4 4 5 5 5 5 6 10 10 11 11 8 4 5 5 5 5 5 6 6 6 6 6 6 5 5 5 5 5 5 5 5 6 6 8 7
5 8 6 4 4 4 4 4 5 5 5 5 5 6 5 4 4 5 5 4 5 6 6 6 6 6 6 6 6 6 6 6 6 6 6 5 5 5 6 6 6 6 6
5 6 8 5 4 5 5 5 6 5 6 6 6 8 9 5 6 7 6 6 6 6 6 6 6 6 6 6 6 7 7 6 6 6 6 5 5 6 6 5 6 6 6
5 5 5 5 5 5 6 6 6 6 7 7 7 7 11 6 5 6 6 6 6 6 6 6 6 6 6 6 6 7 7 7 7 6 6 6 6 6 6 6 5 6 6
5 5 5 5 5 7 7 6 6 6 7 7 7 6 6 6 6 6 7 6 6 6 6 6 6 6 6 6 6 7 7 7 7 7 7 7 7 6 7 7 7 7 7
5 5 6 5 5 6 6 7 7 7 7 7 7 6 6 6 6 7 7 6 6 6 6 6 6 9 11 9 7 7 7 8 8 8 10 9 9 7 7 7 8 9 9
5 5 6 6 6 6 7 7 7 7 7 7 7 6 6 6 6 7 6 6 7 7 8 7 6 8 11 12 11 9 12 15 14 10 9 8 10 10 9 9 9 9 9
5 6 6 6 6 6 7 7 7 7 7 7 6 6 6 6 6 6 6 6 6 7 8 7 9 11 12 11 12 14 16 16 16 16 11 8 9 9 9 8 10 10 10
Wind_Direction
97 82 66 47 33 40 26 324 299 302 296 286 284 287 281 284 289 269 269 279 273 287 303 280 278 274 280 284 247 174 173 165 209 273 276 282 266 257 227 225 214 208 219
100 86 73 54 40 36 11 341 342 338 320 312 313 310 295 289 278 247 268 277 261 264 271 271 278 275 258 258 244 235 226 198 189 244 281 289 260 241 222 226 227 213 216
96 87 66 47 39 23 1 354 358 356 348 350 359 333 313 300 292 275 262 268 263 256 253 246 254 249 249 242 229 234 243 232 195 205 258 273 278 267 229 246 240 256 229
93 84 68 43 30 13 5 5 4 5 5 353 346 332 324 315 325 326 316 302 291 281 268 253 248 235 236 231 226 224 221 221 210 208 241 259 263 265 199 229 255 271 258
96 82 60 39 35 29 22 11 7 10 10 358 358 351 342 341 349 353 334 334 323 313 304 289 271 257 247 233 221 212 203 205 209 213 230 241 243 221 220 216 222 250 271
95 84 63 52 41 30 21 18 16 8 1 6 4 1 359 356 352 0 4 344 336 329 319 312 300 285 281 268 242 221 203 200 206 206 215 222 231 217 208 199 199 204 255
97 84 65 57 44 24 20 24 14 1 2 2 359 5 356 343 356 359 360 3 341 327 321 322 321 315 301 302 276 252 234 225 213 200 208 219 219 211 194 200 204 205 224
99 83 66 61 45 22 23 14 357 352 356 356 358 357 357 354 360 359 359 3 335 322 316 314 318 319 315 308 298 275 255 247 234 221 218 223 221 212 198 199 200 207 243
109 101 85 80 63 36 18 354 344 358 2 360 357 3 6 349 2 6 8 356 339 326 321 325 321 313 323 322 309 289 277 268 255 239 233 234 231 222 204 183 184 187 227
157 161 136 104 91 50 352 339 345 4 1 6 8 3 3 349 359 9 11 8 345 330 324 322 327 327 324 326 304 287 277 272 264 255 247 246 239 233 219 207 198 196 203
170 148 115 109 156 194 345 346 357 10 12 7 1 346 345 340 350 2 5 6 336 326 325 320 315 325 324 318 308 277 272 276 262 246 243 243 240 233 228 218 206 200 201
153 138 132 262 278 58 59 354 357 18 11 347 343 333 324 322 328 337 346 346 339 317 306 302 302 315 318 314 306 294 294 289 260 245 244 241 237 236 234 226 219 218 217
153 164 198 256 288 278 171 291 335 344 332 309 313 308 305 306 309 318 325 327 327 317 296 304 309 312 313 307 300 301 299 282 255 244 243 243 238 235 229 224 224 223 232
169 192 203 204 248 264 244 220 230 259 271 280 285 285 290 297 296 298 302 308 312 313 307 308 312 311 302 293 298 297 282 271 262 250 251 251 249 236 229 218 220 212 223
184 202 212 214 222 240 247 236 231 235 227 236 244 249 266 283 280 286 296 295 295 295 309 310 313 316 315 310 303 294 284 282 275 261 255 260 256 250 245 227 218 214 218
192 213 218 221 228 234 252 281 269 262 272 269 262 262 258 261 279 291 295 295 298 306 315 306 302 304 303 299 303 300 291 281 278 267 260 252 251 249 254 240 225 219 223
199 212 218 222 228 237 240 249 279 295 291 285 280 280 275 279 283 287 290 293 297 306 299 288 290 290 294 293 290 291 288 285 286 273 262 258 256 253 249 245 237 229 227
203 214 213 218 224 230 235 240 243 257 280 287 285 281 280 280 281 283 287 298 297 295 268 272 280 283 284 288 282 280 279 280 277 271 266 260 253 252 250 247 239 233 232
206 215 218 221 226 230 237 243 248 253 257 266 280 289 284 283 283 282 286 268 266 272 269 267 270 274 277 280 278 272 270 271 272 270 262 259 254 250 250 249 247 236 234
217 228 225 223 228 235 239 244 250 253 257 261 264 269 278 284 282 283 274 261 259 264 266 267 267 269 272 275 277 274 270 269 270 268 261 256 254 248 249 251 249 240 233
217 232 239 239 233 236 238 240 244 247 253 258 260 262 262 263 263 266 266 262 258 261 264 264 264 268 269 270 274 274 271 268 264 262 262 255 255 254 247 246 249 243 237
215 223 227 233 237 240 244 243 245 249 255 260 265 269 270 260 256 261 262 263 260 259 258 260 263 262 262 264 268 273 271 270 267 259 262 260 258 259 254 246 249 248 235
219 228 234 239 241 250 254 250 249 251 255 257 260 263 263 257 257 258 260 263 264 265 262 260 264 268 267 264 261 263 266 268 268 264 262 265 260 259 256 248 245 249 243
222 231 237 244 247 248 252 255 255 255 256 258 259 259 259 260 261 262 262 264 265 266 265 263 264 269 273 274 270 264 263 265 265 264 261 261 261 259 257 248 242 240 238
226 235 241 245 249 252 255 257 257 257 258 259 259 260 261 261 262 265 265 266 269 271 270 268 268 270 272 272 272 271 271 268 262 262 262 258 257 253 254 251 244 239 235
234 241 246 250 252 254 255 257 258 259 259 261 261 261 262 264 265 266 267 269 272 273 274 273 271 272 274 275 274 272 273 270 264 261 261 259 256 252 250 249 245 236 231